THORAD AGENA D DEB, 4742

Orbit data source: Space-Track

THORAD AGENA D DEB, 4742 is space debris in SSO originally from a launch on Wed, 08 Apr 1970 UTC launched from the Air Force Western Test Range (AFWTR). Debris objects in space refer to the collection of defunct objects orbiting the Earth. Examples of debris include non-operational satellites, rocket bodies, and fragments generated from explosions, collisions, or faulty payload assembly.

Loading next visibility...
Identifier
4742, 1970-025CR
Orbit
SSO
Country
Flag of USUS
Related business
Manufacturer
Unknown
Mission
Spacecraft
Bus & Motor
Unknown
Mass
Unknown
Launch date (UTC)
1970-04-08 (56 years ago)
Launch vehicle
Unknown
Launch site
Air Force Western Test Range (AFWTR)
Object type
Payload
Rocket body
Debris
Shape & HBR
Unknown shape, 0.2 m
Radar Cross Section
Small (<0.1 m²)

Expand to show TLE details & history
Last TLE update: 2 days ago

TLE from 2 days ago
0 THORAD AGENA D DEB
1 04742U 70025CR  26036.13047506  .00000124  00000-0  24901-3 0  9990
2 04742 100.0267 103.7775 0020044 100.0129 291.9605 13.54361627752147
Epoch: 2026-02-05T03:07Z
TLE epoch observation values (Epoch: 2026-02-05T03:07:53.045Z)
Latitude
31.27588°
Longitude
-84.61415°
Altitude
1,054.561 km
Speed
7.33 km/s
True Right ascension
06h 30m 34s
True Declination
31° 07' 47"
Sunlit
Object was in full shadow at epoch
Visualization orbit readout
Latitude
Unknown
Longitude
Unknown
Altitude
Unknown
Speed
Unknown
Apparent Right ascension
Unknown
Apparent Declination
Unknown
Sunlit
N/A
Visualization observer readout
Local Sidereal Time
22:40:39
Azimuth
Unknown
Elevation
Unknown
Doppler factor
Unknown
Orbital elements
Apogee altitude
1,068.463 km
Perigee altitude
1,038.671 km
Semi-major axis
7,431.704 km
Eccentricity
0.002
Inclination
100.0267°
RAAN
103.7775°
Arg. of periapsis
100.0129°
True anomaly
291.74728°
Mean anomaly
291.9605°
Eccentric anomaly
291.85391°
Mean motion
3.38774 °/min
Orbital period
106.27 mins
BSTAR
0.00024901
Loading maneuver chart data...
Computing Atmospheric mass density...

Documentation

Showing up to 5 results
|